When you browse on this site, cookies collect data to enhance your experience and personalize the content and advertising you see.
Visit our Privacy Policy to learn more. By continuing to use the site, you agree to this use of cookies and data.
  • In Slovakia
  • List of Countries
  • For 7 days
  • Water Temperature
  • Weather Map
  • Weather Widgets
  • user-avatar
    Login

    Hourly Weather Kandi

    Today, 23 August, Friday

    Time Temperature Precipitation Wind Pressure Humidity
    00:00 +24°C° 0 mm 1 mps 738 mmHg 97%
    01:00 +24°C° 0.5 mm 1 mps 737 mmHg 98%
    02:00 +24°C° 0.5 mm 1 mps 737 mmHg 98%
    03:00 +24°C° 0.5 mm 1 mps 737 mmHg 98%
    04:00 +24°C° 0.6 mm 1 mps 737 mmHg 98%
    05:00 +24°C° 0.6 mm 1 mps 737 mmHg 98%
    06:00 +23°C° 0 mm 1 mps 738 mmHg 97%
    07:00 +24°C° 0 mm 2 mps 738 mmHg 94%
    08:00 +25°C° 0 mm 2 mps 739 mmHg 92%
    09:00 +26°C° 0 mm 2 mps 739 mmHg 89%
    10:00 +28°C° 0.7 mm 2 mps 739 mmHg 84%
    11:00 +29°C° 0.7 mm 2 mps 738 mmHg 79%
    12:00 +30°C° 0.7 mm 2 mps 738 mmHg 74%
    13:00 +30°C° 1.4 mm 2 mps 737 mmHg 76%
    14:00 +30°C° 1.4 mm 2 mps 736 mmHg 78%
    15:00 +30°C° 1.4 mm 2 mps 735 mmHg 80%
    16:00 +29°C° 1.8 mm 2 mps 736 mmHg 84%
    17:00 +28°C° 1.8 mm 2 mps 736 mmHg 88%
    18:00 +27°C° 1.8 mm 1 mps 736 mmHg 91%
    19:00 +26°C° 1.7 mm 1 mps 737 mmHg 92%
    20:00 +26°C° 1.7 mm 1 mps 737 mmHg 93%
    21:00 +26°C° 1.7 mm 1 mps 738 mmHg 93%
    22:00 +25°C° 0.8 mm 1 mps 738 mmHg 94%
    23:00 +25°C° 0.8 mm 1 mps 738 mmHg 94%

    Tomorrow, 24 August, Saturday

    Time Temperature Precipitation Wind Pressure Humidity
    00:00 +25°C° 0.8 mm 2 mps 738 mmHg 95%
    01:00 +25°C° 0.1 mm 2 mps 738 mmHg 95%
    02:00 +24°C° 0.1 mm 3 mps 737 mmHg 96%
    03:00 +24°C° 0.1 mm 3 mps 737 mmHg 96%
    04:00 +24°C° 0.3 mm 3 mps 737 mmHg 96%
    05:00 +24°C° 0.3 mm 3 mps 738 mmHg 96%
    06:00 +24°C° 0.3 mm 3 mps 738 mmHg 96%
    07:00 +24°C° 0 mm 3 mps 738 mmHg 94%
    08:00 +25°C° 0 mm 3 mps 739 mmHg 93%
    09:00 +25°C° 0 mm 3 mps 739 mmHg 92%
    10:00 +26°C° 0.1 mm 3 mps 739 mmHg 88%
    11:00 +27°C° 0.1 mm 4 mps 739 mmHg 84%
    12:00 +28°C° 0.1 mm 4 mps 739 mmHg 81%
    13:00 +28°C° 0.9 mm 4 mps 738 mmHg 82%
    14:00 +28°C° 0.9 mm 4 mps 737 mmHg 84%
    15:00 +28°C° 0.9 mm 4 mps 737 mmHg 85%
    16:00 +27°C° 0.3 mm 4 mps 737 mmHg 87%
    17:00 +26°C° 0.3 mm 3 mps 737 mmHg 88%
    18:00 +26°C° 0.3 mm 2 mps 738 mmHg 90%
    19:00 +25°C° 0 mm 2 mps 738 mmHg 90%
    20:00 +25°C° 0 mm 2 mps 739 mmHg 89%
    21:00 +24°C° 0 mm 2 mps 739 mmHg 89%
    22:00 +24°C° 0 mm 3 mps 739 mmHg 89%
    23:00 +24°C° 0 mm 3 mps 739 mmHg 88%

    Day after tomorrow, 25 August, Sunday

    Time Temperature Precipitation Wind Pressure Humidity
    00:00 +24°C° 0 mm 3 mps 739 mmHg 87%
    01:00 +24°C° 0.1 mm 2 mps 739 mmHg 88%
    02:00 +24°C° 0.1 mm 2 mps 738 mmHg 89%
    03:00 +23°C° 0.1 mm 1 mps 738 mmHg 90%
    04:00 +23°C° 0 mm 1 mps 738 mmHg 90%
    05:00 +23°C° 0 mm 1 mps 738 mmHg 91%
    06:00 +23°C° 0 mm 1 mps 739 mmHg 91%
    07:00 +24°C° 0 mm 2 mps 739 mmHg 89%
    08:00 +25°C° 0 mm 3 mps 740 mmHg 86%
    09:00 +26°C° 0 mm 3 mps 740 mmHg 83%
    10:00 +27°C° 0 mm 3 mps 739 mmHg 81%
    11:00 +27°C° 0 mm 3 mps 739 mmHg 79%
    12:00 +28°C° 0 mm 3 mps 739 mmHg 76%
    13:00 +28°C° 0.1 mm 3 mps 738 mmHg 76%
    14:00 +28°C° 0.1 mm 3 mps 738 mmHg 76%
    15:00 +28°C° 0.1 mm 2 mps 737 mmHg 77%
    16:00 +28°C° 0.2 mm 2 mps 737 mmHg 81%
    17:00 +27°C° 0.2 mm 2 mps 737 mmHg 86%
    18:00 +26°C° 0.2 mm 1 mps 737 mmHg 91%
    19:00 +26°C° 0.1 mm 2 mps 737 mmHg 92%
    20:00 +25°C° 0.1 mm 2 mps 738 mmHg 92%
    21:00 +25°C° 0.1 mm 2 mps 738 mmHg 93%
    22:00 +25°C° 0 mm 2 mps 738 mmHg 93%
    23:00 +25°C° 0 mm 2 mps 738 mmHg 93%

    26 August, Monday

    Time Temperature Precipitation Wind Pressure Humidity
    00:00 +24°C° 0 mm 2 mps 738 mmHg 93%
    01:00 +24°C° 0.2 mm 2 mps 738 mmHg 94%
    02:00 +24°C° 0.2 mm 2 mps 737 mmHg 95%
    03:00 +24°C° 0.2 mm 2 mps 737 mmHg 96%
    04:00 +24°C° 0 mm 2 mps 737 mmHg 96%
    05:00 +23°C° 0 mm 2 mps 738 mmHg 96%
    06:00 +23°C° 0 mm 2 mps 738 mmHg 97%
    07:00 +25°C° 0.1 mm 3 mps 738 mmHg 91%
    08:00 +26°C° 0.1 mm 3 mps 739 mmHg 85%
    09:00 +28°C° 0.1 mm 4 mps 739 mmHg 80%
    10:00 +28°C° 1.1 mm 4 mps 739 mmHg 80%
    11:00 +28°C° 1.1 mm 4 mps 738 mmHg 81%
    12:00 +29°C° 1.1 mm 4 mps 737 mmHg 82%
    13:00 +29°C° 1.5 mm 3 mps 737 mmHg 83%
    14:00 +29°C° 1.5 mm 3 mps 736 mmHg 84%
    15:00 +28°C° 1.5 mm 3 mps 736 mmHg 85%
    16:00 +28°C° 1 mm 2 mps 736 mmHg 88%
    17:00 +27°C° 1 mm 2 mps 736 mmHg 91%
    18:00 +26°C° 1 mm 1 mps 736 mmHg 93%
    19:00 +26°C° 1.9 mm 1 mps 737 mmHg 94%
    20:00 +25°C° 1.9 mm 2 mps 737 mmHg 94%
    21:00 +25°C° 1.9 mm 2 mps 738 mmHg 95%
    22:00 +25°C° 0.9 mm 2 mps 738 mmHg 95%
    23:00 +25°C° 0.9 mm 2 mps 738 mmHg 96%

    27 August, Tuesday

    Time Temperature Precipitation Wind Pressure Humidity
    00:00 +24°C° 0.9 mm 2 mps 738 mmHg 96%
    01:00 +24°C° 0 mm 2 mps 737 mmHg 96%
    02:00 +24°C° 0 mm 2 mps 737 mmHg 96%
    03:00 +24°C° 0 mm 2 mps 737 mmHg 96%
    04:00 +24°C° 0 mm 1 mps 737 mmHg 97%
    05:00 +24°C° 0 mm 1 mps 738 mmHg 97%
    06:00 +24°C° 0 mm 1 mps 738 mmHg 97%
    07:00 +25°C° 0 mm 2 mps 738 mmHg 92%
    08:00 +26°C° 0 mm 3 mps 739 mmHg 88%
    09:00 +27°C° 0 mm 3 mps 740 mmHg 84%
    10:00 +28°C° 1.3 mm 3 mps 739 mmHg 84%
    11:00 +28°C° 1.3 mm 3 mps 739 mmHg 83%
    12:00 +29°C° 1.3 mm 3 mps 738 mmHg 82%
    13:00 +29°C° 2.6 mm 2 mps 737 mmHg 83%
    14:00 +29°C° 2.6 mm 2 mps 737 mmHg 84%
    15:00 +29°C° 2.6 mm 2 mps 736 mmHg 86%
    16:00 +28°C° 1.8 mm 2 mps 736 mmHg 88%
    17:00 +27°C° 1.8 mm 2 mps 736 mmHg 91%
    18:00 +26°C° 1.8 mm 1 mps 736 mmHg 93%
    19:00 +25°C° 0.5 mm 2 mps 737 mmHg 94%
    20:00 +25°C° 0.5 mm 2 mps 738 mmHg 95%
    21:00 +25°C° 0.5 mm 2 mps 739 mmHg 96%
    22:00 +25°C° 1.1 mm 2 mps 738 mmHg 96%
    23:00 +24°C° 1.1 mm 2 mps 738 mmHg 97%

    28 August, Wednesday

    Time Temperature Precipitation Wind Pressure Humidity
    00:00 +24°C° 1.1 mm 2 mps 738 mmHg 97%
    01:00 +24°C° 0.5 mm 2 mps 738 mmHg 97%
    02:00 +24°C° 0.5 mm 1 mps 738 mmHg 97%
    03:00 +24°C° 0.5 mm 1 mps 737 mmHg 97%
    04:00 +24°C° 0 mm 1 mps 738 mmHg 97%
    05:00 +24°C° 0 mm 1 mps 738 mmHg 97%
    06:00 +24°C° 0 mm 1 mps 738 mmHg 98%
    07:00 +25°C° 0.2 mm 1 mps 739 mmHg 96%
    08:00 +25°C° 0.2 mm 1 mps 739 mmHg 95%
    09:00 +26°C° 0.2 mm 2 mps 740 mmHg 94%
    10:00 +26°C° 0.8 mm 2 mps 739 mmHg 92%
    11:00 +26°C° 0.8 mm 2 mps 739 mmHg 91%
    12:00 +27°C° 0.8 mm 2 mps 738 mmHg 90%
    13:00 +27°C° 1 mm 2 mps 738 mmHg 91%
    14:00 +26°C° 1 mm 2 mps 737 mmHg 92%
    15:00 +26°C° 1 mm 2 mps 737 mmHg 93%
    16:00 +26°C° 0.8 mm 2 mps 737 mmHg 94%
    17:00 +25°C° 0.8 mm 1 mps 737 mmHg 95%
    18:00 +25°C° 0.8 mm 1 mps 737 mmHg 96%
    19:00 +25°C° 0 mm 1 mps 738 mmHg 97%
    20:00 +24°C° 0 mm 1 mps 738 mmHg 97%
    21:00 +24°C° 0 mm 1 mps 739 mmHg 97%
    22:00 +24°C° 0 mm 1 mps 739 mmHg 97%
    23:00 +24°C° 0 mm 1 mps 738 mmHg 97%
    Show more